| time (UTC) | temp F | wind direction | speed MPH | gust MPH | rain 1hr in | rain 24hr in | rain mn in | humidity % | barometer mb |
| 20260902201534 | 77 | 123 | 2.0 | 11.0 | 0.00 | 0.18 | 0.17 | 84 | 1015.0 |
| 20260902200009 | 76 | 171 | 0.0 | 11.0 | 0.00 | 0.18 | 0.17 | 84 | 1014.9 |
| 20260902194519 | 76 | 157 | 0.0 | 9.0 | 0.00 | 0.18 | 0.17 | 85 | 1015.0 |
| 20260902193016 | 74 | 156 | 1.0 | 10.0 | 0.01 | 0.18 | 0.17 | 86 | 1015.1 |
| 20260902191505 | 74 | 153 | 0.0 | 6.0 | 0.01 | 0.18 | 0.17 | 87 | 1015.4 |
| 20260902190004 | 72 | 119 | 2.0 | 7.0 | 0.01 | 0.18 | 0.17 | 91 | 1015.7 |
| 20260902184504 | 72 | 121 | 0.0 | 3.0 | 0.01 | 0.18 | 0.17 | 90 | 1016.2 |
| 20260902183003 | 72 | 121 | 0.0 | 1.0 | 0.00 | 0.17 | 0.16 | 90 | 1016.7 |
| 20260902181504 | 72 | 117 | 1.0 | 10.0 | 0.00 | 0.17 | 0.16 | 89 | 1015.8 |
| 20260902180006 | 73 | 123 | 3.0 | 9.0 | 0.00 | 0.17 | 0.16 | 88 | 1016.0 |
| 20260902174502 | 74 | 190 | 0.0 | 3.0 | 0.00 | 0.17 | 0.16 | 87 | 1016.1 |
| 20260902173003 | 74 | 179 | 0.0 | 5.0 | 0.00 | 0.17 | 0.16 | 86 | 1015.6 |
| 20260902171501 | 73 | 110 | 3.0 | 11.0 | 0.00 | 0.17 | 0.16 | 89 | 1015.3 |
| 20260902170000 | 74 | 108 | 2.0 | 9.0 | 0.00 | 0.17 | 0.16 | 89 | 1015.3 |
| 20260902164603 | 74 | 140 | 0.0 | 7.0 | 0.00 | 0.17 | 0.16 | 90 | 1015.7 |
| 20260902163158 | 73 | 130 | 2.0 | 7.0 | 0.00 | 0.17 | 0.16 | 91 | 1016.0 |
| 20260902161556 | 72 | 127 | 0.0 | 11.0 | 0.00 | 0.17 | 0.16 | 91 | 1016.6 |
| 20260902160105 | 72 | 165 | 1.0 | 7.0 | 0.00 | 0.17 | 0.16 | 92 | 1016.5 |
| 20260902154552 | 71 | 40 | 0.0 | 3.0 | 0.00 | 0.17 | 0.16 | 92 | 1016.6 |
| 20260902153054 | 70 | 40 | 0.0 | 0.0 | 0.00 | 0.17 | 0.16 | 93 | 1016.3 |
| 20260902151548 | 70 | 40 | 0.0 | 1.0 | 0.01 | 0.17 | 0.16 | 93 | 1016.3 |
| 20260902150046 | 69 | 40 | 0.0 | 0.0 | 0.03 | 0.17 | 0.16 | 93 | 1016.6 |
| 20260902144546 | 69 | 40 | 0.0 | 0.0 | 0.06 | 0.17 | 0.16 | 93 | 1016.8 |
| 20260902143045 | 68 | 40 | 0.0 | 0.0 | 0.13 | 0.17 | 0.16 | 93 | 1016.9 |
| 20260902141546 | 68 | 40 | 0.0 | 0.0 | 0.14 | 0.16 | 0.15 | 93 | 1017.1 |
| 20260902140045 | 68 | 39 | 4.0 | 6.0 | 0.14 | 0.15 | 0.14 | 92 | 1015.9 |
| 20260902134551 | 68 | 37 | 0.0 | 0.0 | 0.10 | 0.11 | 0.10 | 92 | 1017.1 |
| 20260902133043 | 68 | 37 | 0.0 | 2.0 | 0.04 | 0.05 | 0.04 | 92 | 1017.0 |
| 20260902131545 | 68 | 37 | 0.0 | 1.0 | 0.02 | 0.03 | 0.02 | 92 | 1017.1 |
| 20260902130043 | 68 | 36 | 0.0 | 6.0 | 0.00 | 0.01 | 0.00 | 92 | 1017.1 |
| 20260902124539 | 69 | 36 | 0.0 | 2.0 | 0.00 | 0.01 | 0.00 | 92 | 1016.5 |
| 20260902123044 | 69 | 34 | 0.0 | 5.0 | 0.00 | 0.01 | 0.00 | 92 | 1016.0 |
| 20260902121535 | 69 | 29 | 0.0 | 5.0 | 0.00 | 0.01 | 0.00 | 92 | 1015.6 |
| 20260902120033 | 68 | 23 | 0.0 | 5.0 | 0.00 | 0.02 | 0.00 | 93 | 1015.6 |
| 20260902114530 | 68 | 12 | 0.0 | 0.0 | 0.00 | 0.02 | 0.00 | 93 | 1015.7 |
| 20260902113035 | 67 | 11 | 0.0 | 0.0 | 0.00 | 0.02 | 0.00 | 93 | 1015.2 |
| 20260902111528 | 66 | 11 | 0.0 | 0.0 | 0.00 | 0.02 | 0.00 | 93 | 1015.3 |
| 20260902110038 | 65 | 11 | 0.0 | 0.0 | 0.00 | 0.02 | 0.00 | 92 | 1015.3 |
| 20260902104526 | 66 | 11 | 0.0 | 0.0 | 0.00 | 0.02 | 0.00 | 93 | 1015.2 |
| 20260902103025 | 66 | 11 | 0.0 | 0.0 | 0.00 | 0.02 | 0.00 | 93 | 1015.4 |
| 20260902101529 | 65 | 11 | 0.0 | 0.0 | 0.00 | 0.02 | 0.00 | 92 | 1015.3 |
| 20260902100022 | 66 | 11 | 0.0 | 0.0 | 0.00 | 0.02 | 0.00 | 93 | 1015.3 |
| 20260902094524 | 66 | 11 | 0.0 | 0.0 | 0.00 | 0.02 | 0.00 | 93 | 1015.4 |
| 20260902093029 | 66 | 11 | 0.0 | 0.0 | 0.00 | 0.02 | 0.00 | 93 | 1015.4 |
| 20260902091517 | 67 | 11 | 0.0 | 0.0 | 0.00 | 0.02 | 0.00 | 93 | 1015.6 |
| 20260902090018 | 66 | 11 | 0.0 | 0.0 | 0.00 | 0.02 | 0.02 | 93 | 1015.7 |
| 20260902084520 | 66 | 11 | 0.0 | 0.0 | 0.00 | 0.02 | 0.02 | 93 | 1015.7 |
| 20260902083018 | 66 | 11 | 0.0 | 0.0 | 0.00 | 0.02 | 0.02 | 93 | 1015.7 |
| 20260902081519 | 66 | 11 | 0.0 | 0.0 | 0.00 | 0.02 | 0.02 | 93 | 1015.5 |
| 20260902080017 | 67 | 11 | 0.0 | 0.0 | 0.00 | 0.02 | 0.02 | 93 | 1015.6 |
| 20260902074516 | 67 | 11 | 0.0 | 0.0 | 0.00 | 0.02 | 0.02 | 93 | 1015.6 |
| 20260902073017 | 67 | 11 | 0.0 | 0.0 | 0.00 | 0.02 | 0.02 | 93 | 1015.5 |
| 20260902071515 | 67 | 11 | 0.0 | 0.0 | 0.00 | 0.02 | 0.02 | 93 | 1015.7 |
| 20260902070019 | 67 | 11 | 0.0 | 0.0 | 0.00 | 0.02 | 0.02 | 93 | 1015.8 |
| 20260902064512 | 67 | 11 | 0.0 | 0.0 | 0.00 | 0.02 | 0.02 | 93 | 1015.7 |
| 20260902063014 | 67 | 11 | 0.0 | 0.0 | 0.00 | 0.02 | 0.02 | 93 | 1015.5 |
| 20260902061531 | 67 | 11 | 0.0 | 0.0 | 0.00 | 0.02 | 0.02 | 93 | 1015.8 |
| 20260902060113 | 67 | 11 | 0.0 | 0.0 | 0.00 | 0.02 | 0.02 | 93 | 1016.1 |
| 20260902054515 | 67 | 11 | 0.0 | 0.0 | 0.00 | 0.02 | 0.02 | 93 | 1016.3 |
| 20260902053013 | 67 | 11 | 0.0 | 0.0 | 0.00 | 0.02 | 0.02 | 92 | 1016.2 |
| 20260902051508 | 67 | 11 | 0.0 | 0.0 | 0.00 | 0.03 | 0.02 | 92 | 1016.0 |
| 20260902050008 | 68 | 11 | 0.0 | 0.0 | 0.00 | 0.03 | 0.02 | 92 | 1015.8 |
| 20260902044506 | 68 | 11 | 0.0 | 0.0 | 0.00 | 0.03 | 0.02 | 92 | 1015.7 |
| 20260902043003 | 68 | 11 | 0.0 | 0.0 | 0.00 | 0.03 | 0.02 | 92 | 1015.5 |
| 20260902041503 | 68 | 11 | 0.0 | 0.0 | 0.00 | 0.03 | 0.02 | 92 | 1015.2 |
| 20260902040001 | 69 | 11 | 0.0 | 0.0 | 0.00 | 0.03 | 0.02 | 92 | 1015.1 |
| 20260902034502 | 69 | 11 | 0.0 | 0.0 | 0.00 | 0.03 | 0.02 | 92 | 1015.1 |
| 20260902033001 | 69 | 11 | 0.0 | 0.0 | 0.00 | 0.03 | 0.02 | 92 | 1015.0 |
| 20260902024600 | 69 | 11 | 0.0 | 0.0 | 0.00 | 0.03 | 0.02 | 90 | 1015.0 |
| 20260902023109 | 70 | 360 | 0.0 | 0.0 | 0.00 | 0.03 | 0.02 | 91 | 1015.2 |
| 20260902020057 | 70 | 360 | 0.0 | 0.0 | 0.00 | 0.03 | 0.02 | 90 | 1015.0 |
| 20260902014556 | 70 | 360 | 0.0 | 0.0 | 0.00 | 0.03 | 0.02 | 90 | 1015.1 |
| 20260902013057 | 71 | 30 | 0.0 | 0.0 | 0.00 | 0.03 | 0.02 | 89 | 1014.8 |
| 20260902010054 | 72 | 30 | 0.0 | 0.0 | 0.00 | 0.03 | 0.02 | 87 | 1014.5 |
| 20260902004554 | 72 | 30 | 0.0 | 0.0 | 0.00 | 0.03 | 0.02 | 86 | 1014.3 |
| 20260902003054 | 72 | 30 | 0.0 | 0.0 | 0.00 | 0.03 | 0.02 | 87 | 1014.4 |
| 20260902000057 | 74 | 5 | 0.0 | 0.0 | 0.00 | 0.03 | 0.02 | 86 | 1013.9 |
| 20260901234551 | 75 | 5 | 0.0 | 0.0 | 0.00 | 0.03 | 0.02 | 87 | 1013.5 |
| 20260901233055 | 75 | 5 | 0.0 | 0.0 | 0.00 | 0.03 | 0.02 | 86 | 1013.0 |
| 20260901230052 | 76 | 5 | 0.0 | 3.0 | 0.00 | 0.03 | 0.02 | 84 | 1013.1 |
| 20260901224551 | 77 | 13 | 0.0 | 3.0 | 0.01 | 0.03 | 0.02 | 83 | 1013.5 |
| 20260901223053 | 78 | 15 | 0.0 | 5.0 | 0.01 | 0.03 | 0.02 | 84 | 1013.1 |
| 20260901220055 | 80 | 57 | 0.0 | 0.0 | 0.01 | 0.03 | 0.02 | 78 | 1013.2 |
| 20260901214550 | 82 | 60 | 0.0 | 1.0 | 0.00 | 0.02 | 0.01 | 74 | 1012.8 |
| 20260901213049 | 84 | 41 | 0.0 | 2.0 | 0.00 | 0.02 | 0.01 | 69 | 1013.1 |
| 20260901210050 | 87 | 306 | 7.0 | 13.0 | 0.00 | 0.02 | 0.01 | 62 | 1012.3 |
| 20260901204546 | 87 | 301 | 6.0 | 11.0 | 0.00 | 0.02 | 0.01 | 62 | 1012.3 |
| 20260901203045 | 85 | 306 | 1.0 | 9.0 | 0.00 | 0.02 | 0.01 | 65 | 1012.3 |